N2LQH Weather Reports


Display with metric or nautical units.
time (UTC)temp
F
wind
direction
speed
MPH
gust
MPH
rain 1hr
in
rain 24hr
in
rain mn
in
humidity
%
barometer
mb
20260505023100 59 155 3.0 7.0 0.00 0.00 0.00 70 1012.5
20260505022552 59 198 4.0 6.0 0.00 0.00 0.00 70 1012.7
20260505022052 59 151 3.0 8.0 0.00 0.00 0.00 70 1012.5
20260505021552 59 185 4.0 8.0 0.00 0.00 0.00 70 1012.5
20260505021052 59 160 3.0 8.0 0.00 0.00 0.00 70 1012.6
20260505020552 60 181 3.0 8.0 0.00 0.00 0.00 69 1012.5
20260505020054 60 0 4.0 9.0 0.00 0.00 0.00 69 1012.5
20260505015555 60 173 3.0 9.0 0.00 0.00 0.00 69 1012.4
20260505015051 60 171 3.0 7.0 0.00 0.00 0.00 69 1012.4
20260505014554 60 180 3.0 9.0 0.00 0.00 0.00 69 1012.5
20260505014054 60 191 3.0 10.0 0.00 0.00 0.00 69 1012.5
20260505013552 60 187 3.0 10.0 0.00 0.00 0.00 68 1012.5
20260505013059 60 196 4.0 8.0 0.00 0.00 0.00 68 1012.5
20260505012552 61 173 4.0 9.0 0.00 0.00 0.00 68 1012.5
20260505012051 61 190 3.0 9.0 0.00 0.00 0.00 67 1012.5
20260505011552 61 179 4.0 13.0 0.00 0.00 0.00 67 1012.4
20260505011053 61 207 4.0 13.0 0.00 0.00 0.00 67 1012.4
20260505010550 61 204 4.0 11.0 0.00 0.00 0.00 66 1012.3
20260505010053 61 200 5.0 11.0 0.00 0.00 0.00 66 1012.0
20260505005553 62 180 4.0 10.0 0.00 0.00 0.00 65 1012.0
20260505005053 62 164 4.0 9.0 0.00 0.00 0.00 64 1012.0
20260505004555 62 183 4.0 9.0 0.00 0.00 0.00 62 1011.9
20260505004053 62 196 4.0 7.0 0.00 0.00 0.00 61 1012.0
20260505003552 63 181 4.0 9.0 0.00 0.00 0.00 60 1012.0
20260505003058 63 186 4.0 9.0 0.00 0.00 0.00 59 1012.0
20260505002555 64 169 3.0 7.0 0.00 0.00 0.00 57 1011.9
20260505002056 64 162 3.0 7.0 0.00 0.00 0.00 56 1011.9
20260505001556 64 171 4.0 8.0 0.00 0.00 0.00 55 1011.9
20260505001051 65 169 3.0 8.0 0.00 0.00 0.00 54 1011.7
20260505000551 65 184 2.0 8.0 0.00 0.00 0.00 53 1011.8
20260505000106 66 155 4.0 8.0 0.00 0.00 0.00 52 1011.6
20260504235551 67 140 2.0 7.0 0.00 0.00 0.00 50 1011.6
20260504235052 67 173 2.0 7.0 0.00 0.00 0.00 49 1011.6
20260504234610 68 181 3.0 9.0 0.00 0.00 0.00 47 1011.5
20260504234050 68 185 4.0 9.0 0.00 0.00 0.00 46 1011.5
20260504233551 69 173 4.0 8.0 0.00 0.00 0.00 42 1011.4
20260504233051 69 177 4.0 9.0 0.00 0.00 0.00 41 1011.4
20260504232552 69 216 3.0 9.0 0.00 0.00 0.00 40 1011.4
20260504232050 70 212 4.0 11.0 0.00 0.00 0.00 40 1011.5
20260504231603 70 206 5.0 11.0 0.00 0.00 0.00 39 1011.5
20260504231053 70 193 6.0 10.0 0.00 0.00 0.00 39 1011.5
20260504230555 70 224 2.0 9.0 0.00 0.00 0.00 39 1011.5
20260504230052 71 207 4.0 9.0 0.00 0.00 0.00 38 1011.4
20260504225550 71 213 3.0 16.0 0.00 0.00 0.00 37 1011.4
20260504225052 71 220 4.0 16.0 0.00 0.00 0.00 37 1011.2
20260504224555 72 229 7.0 15.0 0.00 0.00 0.00 36 1011.2
20260504224053 72 215 3.0 12.0 0.00 0.00 0.00 36 1011.1
20260504223554 72 242 6.0 14.0 0.00 0.00 0.00 35 1011.2
20260504223051 72 267 6.0 15.0 0.00 0.00 0.00 36 1011.2
20260504222551 72 232 8.0 17.0 0.00 0.00 0.00 36 1011.1
20260504222051 73 224 7.0 17.0 0.00 0.00 0.00 35 1011.1
20260504221559 73 246 9.0 17.0 0.00 0.00 0.00 35 1011.2
20260504221053 73 243 5.0 12.0 0.00 0.00 0.00 35 1011.2
20260504220554 73 276 6.0 13.0 0.00 0.00 0.00 35 1011.2
20260504220052 73 232 4.0 13.0 0.00 0.00 0.00 35 1011.1
20260504215552 73 233 9.0 16.0 0.00 0.00 0.00 34 1011.3
20260504215052 73 223 8.0 16.0 0.00 0.00 0.00 33 1011.3
20260504214554 74 215 6.0 14.0 0.00 0.00 0.00 33 1011.2
20260504214053 74 222 4.0 16.0 0.00 0.00 0.00 34 1011.1
20260504213552 74 250 4.0 16.0 0.00 0.00 0.00 34 1011.2
20260504213055 74 286 5.0 17.0 0.00 0.00 0.00 35 1011.2
20260504212552 74 325 8.0 17.0 0.00 0.00 0.00 33 1011.2
20260504212051 74 252 7.0 11.0 0.00 0.00 0.00 34 1011.1
20260504211558 74 277 5.0 14.0 0.00 0.00 0.00 34 1011.2
20260504211054 74 197 8.0 19.0 0.00 0.00 0.00 35 1011.1
20260504210551 74 240 9.0 19.0 0.00 0.00 0.00 36 1011.2
20260504210110 74 246 5.0 14.0 0.00 0.00 0.00 34 1011.2
20260504205552 74 219 7.0 19.0 0.00 0.00 0.00 35 1011.2
20260504205052 74 250 8.0 19.0 0.00 0.00 0.00 34 1011.3
20260504204602 74 200 11.0 18.0 0.00 0.00 0.00 34 1011.1
20260504204053 74 209 10.0 17.0 0.00 0.00 0.00 34 1011.1
20260504203553 74 208 7.0 17.0 0.00 0.00 0.00 33 1011.1
20260504203054 74 180 7.0 17.0 0.00 0.00 0.00 34 1011.0
20260504202553 75 211 7.0 14.0 0.00 0.00 0.00 33 1011.1
20260504202057 74 206 4.0 15.0 0.00 0.00 0.00 33 1011.1
20260504201556 74 239 7.0 15.0 0.00 0.00 0.00 31 1011.3
20260504201053 75 247 7.0 13.0 0.00 0.00 0.00 33 1011.3
20260504200552 75 244 5.0 12.0 0.00 0.00 0.00 33 1011.3
20260504200100 75 242 4.0 18.0 0.00 0.00 0.00 34 1011.3
20260504195550 74 0 6.0 18.0 0.00 0.00 0.00 36 1011.4
20260504195051 74 216 8.0 18.0 0.00 0.00 0.00 34 1011.5
20260504194608 74 183 8.0 15.0 0.00 0.00 0.00 33 1011.4
20260504194051 74 205 3.0 15.0 0.00 0.00 0.00 36 1011.4
20260504193551 74 233 8.0 15.0 0.00 0.00 0.00 35 1011.5
20260504193056 73 321 7.0 15.0 0.00 0.00 0.00 34 1011.6
20260504192550 73 222 9.0 15.0 0.00 0.00 0.00 35 1011.8
20260504192052 73 226 6.0 17.0 0.00 0.00 0.00 35 1011.9
20260504191558 73 297 7.0 17.0 0.00 0.00 0.00 35 1012.0
20260504191052 73 236 6.0 14.0 0.00 0.00 0.00 35 1012.0
20260504190552 73 317 7.0 15.0 0.00 0.00 0.00 35 1012.1
20260504190125 73 257 8.0 15.0 0.00 0.00 0.00 34 1012.3
20260504185552 73 258 7.0 15.0 0.00 0.00 0.00 35 1012.3
20260504185052 73 225 8.0 15.0 0.00 0.00 0.00 35 1012.4
20260504184557 73 254 7.0 14.0 0.00 0.00 0.00 34 1012.6
20260504184054 73 200 4.0 14.0 0.00 0.00 0.00 38 1012.5
20260504183550 73 243 7.0 14.0 0.00 0.00 0.00 34 1012.8
20260504183054 73 271 4.0 11.0 0.00 0.00 0.00 35 1012.7
20260504182550 72 254 5.0 12.0 0.00 0.00 0.00 35 1012.8
20260504182054 72 255 5.0 12.0 0.00 0.00 0.00 34 1012.9
20260504181600 73 269 5.0 14.0 0.00 0.00 0.00 35 1013.0
20260504181054 73 204 6.0 14.0 0.00 0.00 0.00 36 1012.9
20260504180555 73 225 3.0 17.0 0.00 0.00 0.00 36 1013.1
20260504180144 71 250 6.0 17.0 0.00 0.00 0.00 35 1013.1
20260504175552 71 219 9.0 17.0 0.00 0.00 0.00 36 1013.1
20260504175056 72 237 6.0 14.0 0.00 0.00 0.00 35 1013.3
20260504174553 72 5 5.0 14.0 0.00 0.00 0.00 35 1013.3
20260504174057 71 290 6.0 14.0 0.00 0.00 0.00 37 1013.3
20260504173556 71 178 5.0 14.0 0.00 0.00 0.00 36 1013.6
20260504173115 70 296 4.0 18.0 0.00 0.00 0.00 37 1013.4
20260504172552 70 240 8.0 18.0 0.00 0.00 0.00 37 1013.7
20260504172055 71 259 6.0 13.0 0.00 0.00 0.00 37 1013.6
20260504171557 70 300 6.0 14.0 0.00 0.00 0.00 38 1013.6
20260504171056 71 295 7.0 18.0 0.00 0.00 0.00 36 1013.8
20260504170555 71 296 9.0 18.0 0.00 0.00 0.00 36 1013.9
20260504151054 67 196 6.0 14.0 0.00 0.00 0.00 49 1015.2
20260504150556 66 292 8.0 14.0 0.00 0.00 0.00 48 1015.2
20260504141055 63 275 6.0 18.0 0.00 0.00 0.00 56 1015.2
20260504140553 63 217 10.0 18.0 0.00 0.00 0.00 54 1015.3
20260504140112 63 260 9.0 17.0 0.00 0.00 0.00 54 1015.2
20260504130552 58 219 8.0 16.0 0.00 0.00 0.00 65 1015.5
20260504120136 48 187 4.0 7.0 0.00 0.00 0.00 90 1016.3
20260504110552 37 0 0.0 0.0 0.00 0.00 0.00 92 1016.2
20260504100551 33 0 0.0 0.0 0.00 0.00 0.00 88 1016.1
20260504081555 35 0 0.0 2.0 0.00 0.00 0.00 86 1016.1
20260504081050 35 0 0.0 2.0 0.00 0.00 0.00 86 1016.1
20260504080553 35 0 0.0 2.0 0.00 0.00 0.00 86 1016.0
20260504050555 38 360 2.0 5.0 0.00 0.00 0.00 83 1015.5
20260504050131 38 360 1.0 4.0 0.00 0.00 0.00 83 1015.5
20260504045554 38 0 0.0 4.0 0.00 0.00 0.00 83 1015.4
20260504045054 38 360 0.0 4.0 0.00 0.00 0.00 82 1015.4
20260504044558 38 360 1.0 4.0 0.00 0.00 0.00 83 1015.5
20260504044052 38 0 0.0 4.0 0.00 0.00 0.00 83 1015.4
20260504043553 38 0 1.0 4.0 0.00 0.00 0.00 82 1015.4
20260504043101 38 360 0.0 2.0 0.00 0.00 0.00 82 1015.3
20260504042555 38 0 0.0 2.0 0.00 0.00 0.00 82 1015.1
20260504042053 38 0 0.0 2.0 0.00 0.00 0.00 81 1015.2
20260504041554 38 0 0.0 2.0 0.00 0.00 0.00 81 1015.1
20260504041052 38 0 0.0 4.0 0.00 0.00 0.00 81 1015.1
20260504040555 39 360 1.0 4.0 0.00 0.00 0.00 80 1015.2
20260504040103 39 0 0.0 4.0 0.00 0.00 0.00 80 1015.1
20260504035555 39 360 0.0 4.0 0.00 0.00 0.00 79 1015.1
20260504035059 39 360 0.0 4.0 0.00 0.00 0.00 79 1015.0
20260504034556 39 0 0.0 4.0 0.00 0.00 0.00 79 1015.0
20260504034052 39 360 0.0 2.0 0.00 0.00 0.00 78 1015.0
20260504033552 39 0 0.0 2.0 0.00 0.00 0.00 78 1015.0
20260504033100 39 0 0.0 2.0 0.00 0.00 0.00 78 1015.1
20260504032555 39 0 0.0 2.0 0.00 0.00 0.00 77 1014.9
20260504032058 40 0 0.0 3.0 0.00 0.00 0.00 77 1015.1
20260504031629 40 360 0.0 3.0 0.00 0.00 0.00 77 1015.0
20260504031054 40 0 0.0 0.0 0.00 0.00 0.00 76 1015.0
20260504030555 40 0 0.0 0.0 0.00 0.00 0.00 75 1014.9
20260504030056 40 0 0.0 0.0 0.00 0.00 0.00 75 1014.9
20260504025556 41 0 0.0 0.0 0.00 0.00 0.00 74 1015.0
20260504025056 41 0 0.0 0.0 0.00 0.00 0.00 74 1014.9
20260504024556 41 0 0.0 0.0 0.00 0.00 0.00 73 1014.9
20260504024055 41 0 0.0 1.0 0.00 0.00 0.00 72 1015.0
20260504023555 42 0 0.0 1.0 0.00 0.00 0.00 71 1015.0